Time,TemperatureF,DewpointF,PressureIn,WindDirection,WindDirectionDegrees,WindSpeedMPH,WindSpeedGustMPH,Humidity,HourlyPrecipIn,Conditions,Clouds,dailyrainin,SolarRadiationWatts/m^2,SoftwareType,DateUTC
2013-04-15 00:03:00,59.0,46.0,-100.00,North,-999,-999.0,-999.0,63,0.00,,,0.00,0.000000,,2013-04-15 04:03:00,
2013-04-15 00:10:00,56.0,48.0,-100.00,North,-999,-999.0,-999.0,74,0.00,,,0.00,0.000000,,2013-04-15 04:10:00,
2013-04-15 00:33:00,56.0,48.0,-100.00,North,-999,-999.0,-999.0,74,0.00,,,0.00,0.000000,,2013-04-15 04:33:00,
2013-04-15 00:43:00,56.0,48.0,-100.00,North,-999,-999.0,-999.0,74,0.00,,,0.00,0.000000,,2013-04-15 04:43:00,
2013-04-15 00:53:00,56.0,48.0,-100.00,North,-999,-999.0,-999.0,74,0.00,,,0.00,0.000000,,2013-04-15 04:53:00,
2013-04-15 01:03:00,56.0,48.0,-100.00,North,-999,-999.0,-999.0,74,0.00,,,0.00,0.000000,,2013-04-15 05:03:00,
2013-04-15 01:10:00,54.0,50.0,-100.00,North,-999,-999.0,-999.0,87,0.00,,,0.00,0.000000,,2013-04-15 05:10:00,
2013-04-15 01:33:00,54.0,50.0,-100.00,North,-999,-999.0,-999.0,87,0.00,,,0.00,0.000000,,2013-04-15 05:33:00,
2013-04-15 01:43:00,54.0,50.0,-100.00,North,-999,-999.0,-999.0,87,0.00,,,0.00,0.000000,,2013-04-15 05:43:00,
2013-04-15 01:53:00,54.0,50.0,-100.00,North,-999,-999.0,-999.0,87,0.00,,,0.00,0.000000,,2013-04-15 05:53:00,
2013-04-15 02:02:00,54.0,50.0,-100.00,North,-999,-999.0,-999.0,87,0.00,,,0.00,0.000000,,2013-04-15 06:02:00,
2013-04-15 02:10:00,52.0,50.0,-100.00,North,-999,-999.0,-999.0,92,0.04,,,0.04,0.000000,,2013-04-15 06:10:00,
2013-04-15 02:34:00,52.0,50.0,-100.00,North,-999,-999.0,-999.0,92,0.04,,,0.04,0.000000,,2013-04-15 06:34:00,
2013-04-15 02:43:00,52.0,50.0,-100.00,North,-999,-999.0,-999.0,92,0.04,,,0.04,0.000000,,2013-04-15 06:43:00,
2013-04-15 02:53:00,52.0,50.0,-100.00,North,-999,-999.0,-999.0,92,0.04,,,0.04,0.000000,,2013-04-15 06:53:00,
2013-04-15 03:03:00,52.0,50.0,-100.00,North,-999,-999.0,-999.0,92,0.04,,,0.04,0.000000,,2013-04-15 07:03:00,
2013-04-15 03:10:00,49.0,49.0,-100.00,North,-999,-999.0,-999.0,99,0.10,,,0.14,0.000000,,2013-04-15 07:10:00,
2013-04-15 03:43:00,49.0,49.0,-100.00,North,-999,-999.0,-999.0,99,0.10,,,0.14,0.000000,,2013-04-15 07:43:00,
2013-04-15 03:54:00,49.0,49.0,-100.00,North,-999,-999.0,-999.0,99,0.10,,,0.14,0.000000,,2013-04-15 07:54:00,
2013-04-15 04:03:00,49.0,49.0,-100.00,North,-999,-999.0,-999.0,99,0.10,,,0.14,0.000000,,2013-04-15 08:03:00,
2013-04-15 04:10:00,49.0,49.0,-100.00,North,-999,-999.0,-999.0,100,0.02,,,0.16,0.000000,,2013-04-15 08:10:00,
2013-04-15 04:43:00,49.0,49.0,-100.00,North,-999,-999.0,-999.0,100,0.02,,,0.16,0.000000,,2013-04-15 08:43:00,
2013-04-15 04:52:00,49.0,49.0,-100.00,North,-999,-999.0,-999.0,100,0.02,,,0.16,0.000000,,2013-04-15 08:52:00,
2013-04-15 05:03:00,49.0,49.0,-100.00,North,-999,-999.0,-999.0,100,0.02,,,0.16,0.000000,,2013-04-15 09:03:00,
2013-04-15 05:10:00,51.0,51.0,-100.00,North,-999,-999.0,-999.0,100,0.16,,,0.32,0.000000,,2013-04-15 09:10:00,
2013-04-15 05:33:00,51.0,51.0,-100.00,North,-999,-999.0,-999.0,100,0.16,,,0.32,0.000000,,2013-04-15 09:33:00,
2013-04-15 05:43:00,51.0,51.0,-100.00,North,-999,-999.0,-999.0,100,0.16,,,0.32,0.000000,,2013-04-15 09:43:00,
2013-04-15 05:53:00,51.0,51.0,-100.00,North,-999,-999.0,-999.0,100,0.16,,,0.32,0.000000,,2013-04-15 09:53:00,
2013-04-15 06:03:00,51.0,51.0,-100.00,North,-999,-999.0,-999.0,100,0.16,,,0.32,0.000000,,2013-04-15 10:03:00,
2013-04-15 06:10:00,49.0,49.0,-100.00,North,-999,-999.0,-999.0,100,0.06,,,0.38,0.000000,,2013-04-15 10:10:00,
2013-04-15 06:33:00,49.0,49.0,-100.00,North,-999,-999.0,-999.0,100,0.06,,,0.38,0.000000,,2013-04-15 10:33:00,
2013-04-15 06:42:00,49.0,49.0,-100.00,North,-999,-999.0,-999.0,100,0.06,,,0.38,0.000000,,2013-04-15 10:42:00,
2013-04-15 06:53:00,49.0,49.0,-100.00,North,-999,-999.0,-999.0,100,0.06,,,0.38,0.000000,,2013-04-15 10:53:00,
2013-04-15 07:03:00,49.0,49.0,-100.00,North,-999,-999.0,-999.0,100,0.06,,,0.38,0.000000,,2013-04-15 11:03:00,
2013-04-15 07:10:00,50.0,50.0,-100.00,North,-999,-999.0,-999.0,100,0.04,,,0.42,0.000000,,2013-04-15 11:10:00,
2013-04-15 07:33:00,50.0,50.0,-100.00,North,-999,-999.0,-999.0,100,0.04,,,0.42,0.000000,,2013-04-15 11:33:00,
2013-04-15 07:44:00,50.0,50.0,-100.00,North,-999,-999.0,-999.0,100,0.04,,,0.42,0.000000,,2013-04-15 11:44:00,
2013-04-15 07:54:00,50.0,50.0,-100.00,North,-999,-999.0,-999.0,100,0.04,,,0.42,0.000000,,2013-04-15 11:54:00,
2013-04-15 08:05:00,50.0,50.0,-100.00,North,-999,-999.0,-999.0,100,0.04,,,0.42,0.000000,,2013-04-15 12:05:00,
2013-04-15 08:10:00,50.0,50.0,-100.00,North,-999,-999.0,-999.0,100,0.05,,,0.47,0.000000,,2013-04-15 12:10:00,
2013-04-15 08:34:00,50.0,50.0,-100.00,North,-999,-999.0,-999.0,100,0.05,,,0.47,0.000000,,2013-04-15 12:34:00,
2013-04-15 08:43:00,50.0,50.0,-100.00,North,-999,-999.0,-999.0,100,0.05,,,0.47,0.000000,,2013-04-15 12:43:00,
2013-04-15 08:54:00,50.0,50.0,-100.00,North,-999,-999.0,-999.0,100,0.05,,,0.47,0.000000,,2013-04-15 12:54:00,
2013-04-15 09:05:00,50.0,50.0,-100.00,North,-999,-999.0,-999.0,100,0.05,,,0.47,0.000000,,2013-04-15 13:05:00,
2013-04-15 09:10:00,51.0,51.0,-100.00,North,-999,-999.0,-999.0,100,0.04,,,0.51,0.000000,,2013-04-15 13:10:00,
2013-04-15 09:43:00,51.0,51.0,-100.00,North,-999,-999.0,-999.0,100,0.04,,,0.51,0.000000,,2013-04-15 13:43:00,
2013-04-15 09:54:00,51.0,51.0,-100.00,North,-999,-999.0,-999.0,100,0.04,,,0.51,0.000000,,2013-04-15 13:54:00,
2013-04-15 10:05:00,51.0,51.0,-100.00,North,-999,-999.0,-999.0,100,0.04,,,0.51,0.000000,,2013-04-15 14:05:00,
2013-04-15 10:10:00,51.0,51.0,-100.00,North,-999,-999.0,-999.0,100,0.02,,,0.53,0.000000,,2013-04-15 14:10:00,
2013-04-15 10:34:00,51.0,51.0,-100.00,North,-999,-999.0,-999.0,100,0.02,,,0.53,0.000000,,2013-04-15 14:34:00,
2013-04-15 10:44:00,51.0,51.0,-100.00,North,-999,-999.0,-999.0,100,0.02,,,0.53,0.000000,,2013-04-15 14:44:00,
2013-04-15 11:04:00,51.0,51.0,-100.00,North,-999,-999.0,-999.0,100,0.02,,,0.53,0.000000,,2013-04-15 15:04:00,
2013-04-15 11:10:00,52.0,52.0,-100.00,North,-999,-999.0,-999.0,100,0.08,,,0.61,0.000000,,2013-04-15 15:10:00,
2013-04-15 11:37:00,52.0,52.0,-100.00,North,-999,-999.0,-999.0,100,0.08,,,0.61,0.000000,,2013-04-15 15:37:00,
2013-04-15 11:45:00,52.0,52.0,-100.00,North,-999,-999.0,-999.0,100,0.08,,,0.61,0.000000,,2013-04-15 15:45:00,
2013-04-15 11:55:00,52.0,52.0,-100.00,North,-999,-999.0,-999.0,100,0.08,,,0.61,0.000000,,2013-04-15 15:55:00,
2013-04-15 12:05:00,52.0,52.0,-100.00,North,-999,-999.0,-999.0,100,0.08,,,0.61,0.000000,,2013-04-15 16:05:00,
2013-04-15 12:10:00,51.0,51.0,-100.00,North,-999,-999.0,-999.0,100,0.05,,,0.66,0.000000,,2013-04-15 16:10:00,
2013-04-15 12:44:00,51.0,51.0,-100.00,North,-999,-999.0,-999.0,100,0.05,,,0.66,0.000000,,2013-04-15 16:44:00,
2013-04-15 12:54:00,51.0,51.0,-100.00,North,-999,-999.0,-999.0,100,0.05,,,0.66,0.000000,,2013-04-15 16:54:00,
2013-04-15 13:04:00,51.0,51.0,-100.00,North,-999,-999.0,-999.0,100,0.05,,,0.66,0.000000,,2013-04-15 17:04:00,
2013-04-15 13:10:00,51.0,51.0,-100.00,North,-999,-999.0,-999.0,100,0.04,,,0.70,0.000000,,2013-04-15 17:10:00,
2013-04-15 13:33:00,51.0,51.0,-100.00,North,-999,-999.0,-999.0,100,0.04,,,0.70,0.000000,,2013-04-15 17:33:00,
2013-04-15 13:43:00,51.0,51.0,-100.00,North,-999,-999.0,-999.0,100,0.04,,,0.70,0.000000,,2013-04-15 17:43:00,
2013-04-15 13:53:00,51.0,51.0,-100.00,North,-999,-999.0,-999.0,100,0.04,,,0.70,0.000000,,2013-04-15 17:53:00,
2013-04-15 14:04:00,51.0,51.0,-100.00,North,-999,-999.0,-999.0,100,0.04,,,0.70,0.000000,,2013-04-15 18:04:00,
2013-04-15 14:10:00,51.0,51.0,-100.00,North,-999,-999.0,-999.0,99,0.01,,,0.71,0.000000,,2013-04-15 18:10:00,
2013-04-15 14:33:00,51.0,51.0,-100.00,North,-999,-999.0,-999.0,99,0.01,,,0.71,0.000000,,2013-04-15 18:33:00,
2013-04-15 14:42:00,51.0,51.0,-100.00,North,-999,-999.0,-999.0,99,0.01,,,0.71,0.000000,,2013-04-15 18:42:00,
2013-04-15 14:52:00,51.0,51.0,-100.00,North,-999,-999.0,-999.0,99,0.01,,,0.71,0.000000,,2013-04-15 18:52:00,
2013-04-15 15:02:00,51.0,51.0,-100.00,North,-999,-999.0,-999.0,99,0.01,,,0.71,0.000000,,2013-04-15 19:02:00,
2013-04-15 15:10:00,53.0,53.0,-100.00,North,-999,-999.0,-999.0,99,0.01,,,0.72,0.000000,,2013-04-15 19:10:00,
2013-04-15 15:59:00,53.0,53.0,-100.00,North,-999,-999.0,-999.0,99,0.01,,,0.72,0.000000,,2013-04-15 19:59:00,
2013-04-15 16:02:00,53.0,53.0,-100.00,North,-999,-999.0,-999.0,99,0.01,,,0.72,0.000000,,2013-04-15 20:02:00,
2013-04-15 16:10:00,53.0,53.0,-100.00,North,-999,-999.0,-999.0,99,0.01,,,0.73,0.000000,,2013-04-15 20:10:00,
2013-04-15 16:32:00,53.0,53.0,-100.00,North,-999,-999.0,-999.0,99,0.01,,,0.73,0.000000,,2013-04-15 20:32:00,
2013-04-15 16:42:00,53.0,53.0,-100.00,North,-999,-999.0,-999.0,99,0.01,,,0.73,0.000000,,2013-04-15 20:42:00,
2013-04-15 16:52:00,53.0,53.0,-100.00,North,-999,-999.0,-999.0,99,0.01,,,0.73,0.000000,,2013-04-15 20:52:00,
2013-04-15 17:02:00,53.0,53.0,-100.00,North,-999,-999.0,-999.0,99,0.01,,,0.73,0.000000,,2013-04-15 21:02:00,
2013-04-15 17:10:00,54.0,54.0,-100.00,North,-999,-999.0,-999.0,99,0.00,,,0.73,0.000000,,2013-04-15 21:10:00,
2013-04-15 17:43:00,54.0,54.0,-100.00,North,-999,-999.0,-999.0,99,0.00,,,0.73,0.000000,,2013-04-15 21:43:00,
2013-04-15 17:53:00,54.0,54.0,-100.00,North,-999,-999.0,-999.0,99,0.00,,,0.73,0.000000,,2013-04-15 21:53:00,
2013-04-15 18:02:00,54.0,54.0,-100.00,North,-999,-999.0,-999.0,99,0.00,,,0.73,0.000000,,2013-04-15 22:02:00,
2013-04-15 18:10:00,52.0,52.0,-100.00,North,-999,-999.0,-999.0,99,0.01,,,0.74,0.000000,,2013-04-15 22:10:00,
2013-04-15 18:42:00,52.0,52.0,-100.00,North,-999,-999.0,-999.0,99,0.01,,,0.74,0.000000,,2013-04-15 22:42:00,
2013-04-15 18:52:00,52.0,52.0,-100.00,North,-999,-999.0,-999.0,99,0.01,,,0.74,0.000000,,2013-04-15 22:52:00,
2013-04-15 19:02:00,52.0,52.0,-100.00,North,-999,-999.0,-999.0,99,0.01,,,0.74,0.000000,,2013-04-15 23:02:00,
2013-04-15 19:10:00,52.0,52.0,-100.00,North,-999,-999.0,-999.0,100,0.00,,,0.74,0.000000,,2013-04-15 23:10:00,
2013-04-15 19:32:00,52.0,52.0,-100.00,North,-999,-999.0,-999.0,100,0.00,,,0.74,0.000000,,2013-04-15 23:32:00,
2013-04-15 19:42:00,52.0,52.0,-100.00,North,-999,-999.0,-999.0,100,0.00,,,0.74,0.000000,,2013-04-15 23:42:00,
2013-04-15 19:52:00,52.0,52.0,-100.00,North,-999,-999.0,-999.0,100,0.00,,,0.74,0.000000,,2013-04-15 23:52:00,
2013-04-15 20:03:00,52.0,52.0,-100.00,North,-999,-999.0,-999.0,100,0.00,,,0.74,0.000000,,2013-04-16 00:03:00,
2013-04-15 21:10:00,53.0,53.0,-100.00,North,-999,-999.0,-999.0,100,-99.99,,,0.74,0.000000,,2013-04-16 01:10:00,
2013-04-15 21:32:00,53.0,53.0,-100.00,North,-999,-999.0,-999.0,100,-99.99,,,0.74,0.000000,,2013-04-16 01:32:00,
2013-04-15 21:42:00,53.0,53.0,-100.00,North,-999,-999.0,-999.0,100,-99.99,,,0.74,0.000000,,2013-04-16 01:42:00,
2013-04-15 21:52:00,53.0,53.0,-100.00,North,-999,-999.0,-999.0,100,-99.99,,,0.74,0.000000,,2013-04-16 01:52:00,
2013-04-15 22:02:00,53.0,53.0,-100.00,North,-999,-999.0,-999.0,100,-99.99,,,0.74,0.000000,,2013-04-16 02:02:00,
2013-04-15 22:10:00,53.0,53.0,-100.00,North,-999,-999.0,-999.0,100,0.00,,,0.74,0.000000,,2013-04-16 02:10:00,
2013-04-15 22:32:00,53.0,53.0,-100.00,North,-999,-999.0,-999.0,100,0.00,,,0.74,0.000000,,2013-04-16 02:32:00,
2013-04-15 22:42:00,53.0,53.0,-100.00,North,-999,-999.0,-999.0,100,0.00,,,0.74,0.000000,,2013-04-16 02:42:00,
2013-04-15 22:52:00,53.0,53.0,-100.00,North,-999,-999.0,-999.0,100,0.00,,,0.74,0.000000,,2013-04-16 02:52:00,
2013-04-15 23:02:00,53.0,53.0,-100.00,North,-999,-999.0,-999.0,100,0.00,,,0.74,0.000000,,2013-04-16 03:02:00,
2013-04-15 23:10:00,52.0,52.0,-100.00,North,-999,-999.0,-999.0,100,0.00,,,0.74,0.000000,,2013-04-16 03:10:00,
2013-04-15 23:33:00,52.0,52.0,-100.00,North,-999,-999.0,-999.0,100,0.00,,,0.74,0.000000,,2013-04-16 03:33:00,
2013-04-15 23:43:00,52.0,52.0,-100.00,North,-999,-999.0,-999.0,100,0.00,,,0.74,0.000000,,2013-04-16 03:43:00,
2013-04-15 23:53:00,52.0,52.0,-100.00,North,-999,-999.0,-999.0,100,0.00,,,0.74,0.000000,,2013-04-16 03:53:00,